Latest Weather Observations for Moorabbin Airport

IDV60901

Issued at 9:21 am EDT Sunday 29 March 2015 (issued every 10 minutes, with the page automatically refreshed every 10 minutes)

About weather observations | Map of Melbourne area stations | Latest observations for Melbourne area | Other Formats
Station Details ID: 086077 Name: MOORABBIN AIRPORT Lat: -37.98 Lon: 145.10 Height: 12.1 m
Data from the previous 72 hours. | See also: Recent months at Moorabbin Airport
Date/Time
EDT
Tmp

°C
App
Tmp
°C
Dew
Point
°C
Rel
Hum
%
Delta-T

°C
Wind Press
QNH
hPa
Press
MSL
hPa
Rain
since
9 am
mm
Dir
 
Spd
km/h
Gust
km/h
Spd
kts
Gust
kts
29/08:30am 10.9 9.4 9.3 90 0.8 N 7 7 4 4 1022.8 1022.8 0.0
29/08:00am 9.6 7.5 8.4 92 0.6 N 9 11 5 6 1022.6 1022.6 0.0
29/07:30am 8.7 6.4 7.5 92 0.6 N 9 11 5 6 1022.3 1022.3 0.0
29/07:00am 8.6 6.3 7.5 93 0.5 N 9 9 5 5 1022.0 1022.0 0.0
29/06:30am 8.3 6.5 7.1 92 0.6 N 6 7 3 4 1021.6 1021.6 0.0
29/05:30am 9.0 6.7 7.6 91 0.7 N 9 9 5 5 1020.8 1020.8 0.0
29/05:00am 9.3 7.5 7.9 91 0.7 N 7 9 4 5 1020.9 1020.9 0.0
29/04:30am 9.9 8.3 8.7 92 0.6 N 7 7 4 4 1020.7 1020.7 0.0
29/04:00am 9.7 7.6 8.3 91 0.7 N 9 11 5 6 1020.6 1020.6 0.0
29/03:30am 9.0 7.3 7.6 91 0.7 N 6 9 3 5 1020.9 1020.9 0.0
29/03:00am 9.4 7.8 8.0 91 0.7 N 6 6 3 3 1021.3 1021.3 0.0
29/02:30am 9.8 8.2 8.6 92 0.6 NNE 7 9 4 5 1021.5 1021.5 0.0
29/02:00am 9.5 7.9 8.1 91 0.7 NNE 6 7 3 4 1021.7 1021.7 0.0
29/01:30am 10.1 9.9 8.9 92 0.6 CALM 0 0 0 0 1022.1 1022.1 0.0
29/01:00am 9.9 9.5 8.3 90 0.8 CALM 0 0 0 0 1022.2 1022.2 0.0
29/12:30am 9.8 9.4 8.1 89 0.8 CALM 0 0 0 0 1022.3 1022.3 0.0
 
Date/Time
EDT
Tmp

°C
App
Tmp
°C
Dew
Point
°C
Rel
Hum
%
Delta-T

°C
Wind Press
QNH
hPa
Press
MSL
hPa
Rain
since
9 am
mm
Dir
 
Spd
km/h
Gust
km/h
Spd
kts
Gust
kts
28/11:30pm 11.4 11.2 9.1 86 1.1 CALM 0 0 0 0 1022.6 1022.6 0.0
28/11:00pm 11.6 10.1 9.0 84 1.3 SSE 7 9 4 5 1022.6 1022.6 0.0
28/10:30pm 11.8 10.3 8.6 81 1.6 SSE 6 7 3 4 1022.5 1022.5 0.0
28/10:00pm 12.3 10.8 8.4 77 1.9 SSE 6 9 3 5 1022.4 1022.4 0.0
28/09:30pm 12.8 12.5 8.5 75 2.1 CALM 0 0 0 0 1022.4 1022.4 0.0
28/08:30pm 14.1 12.5 8.7 70 2.7 S 7 7 4 4 1022.4 1022.4 0.0
28/08:00pm 14.9 12.9 8.8 67 3.1 SSW 9 11 5 6 1022.2 1022.2 0.0
28/07:30pm 15.3 13.2 8.1 62 3.6 S 9 13 5 7 1022.1 1022.1 0.0
28/07:00pm 16.3 13.4 8.0 58 4.2 S 13 15 7 8 1022.1 1022.1 0.0
28/06:30pm 16.9 14.0 8.1 56 4.5 S 13 17 7 9 1021.9 1021.9 0.0
28/05:30pm 18.2 15.3 8.2 52 5.1 SSW 13 19 7 10 1022.2 1022.2 0.0
28/05:00pm 18.1 15.2 8.1 52 5.1 SSW 13 19 7 10 1022.3 1022.3 0.0
28/04:30pm 18.3 15.1 8.6 53 5.0 SW 15 20 8 11 1022.7 1022.7 0.0
28/04:00pm 18.2 14.9 8.2 52 5.1 SW 15 20 8 11 1023.0 1023.0 0.0
28/03:30pm 18.4 16.3 8.4 52 5.2 WNW 9 15 5 8 1023.2 1023.2 0.0
28/03:00pm 17.2 14.2 7.8 54 4.7 SW 13 17 7 9 1023.6 1023.6 0.0
28/02:30pm 17.2 14.8 8.6 57 4.4 WSW 11 17 6 9 1023.9 1023.9 0.0
28/02:00pm 17.0 14.3 8.9 59 4.2 SW 13 19 7 10 1024.3 1024.3 0.0
28/01:30pm 16.5 13.8 9.0 61 3.9 SW 13 20 7 11 1024.7 1024.7 0.0
28/01:00pm 16.6 13.4 9.8 64 3.5 WSW 17 20 9 11 1025.0 1025.0 0.0
28/12:30pm 15.4 13.4 10.0 70 2.8 WNW 11 19 6 10 1025.6 1025.6 0.0
28/12:09pm 14.6 13.1 10.4 76 2.2 W 9 15 5 8 1025.7 1025.7 0.0
28/12:00pm 14.5 13.2 11.1 80 1.8 W 9 15 5 8 1025.9 1025.9 0.0
28/11:54am 13.8 11.5 10.4 80 1.8 WSW 13 20 7 11 1025.9 1025.9 0.0
28/11:30am 14.3 13.2 10.5 78 2.0 WNW 7 9 4 5 1025.9 1025.9 0.0
28/11:00am 14.4 13.3 10.6 78 2.0 WSW 7 13 4 7 1025.8 1025.8 0.0
28/10:30am 14.1 12.1 10.3 78 2.0 WSW 11 15 6 8 1026.0 1026.0 0.0
28/10:00am 13.9 12.3 10.1 78 2.0 WNW 9 13 5 7 1026.0 1026.0 0.0
28/09:30am 14.3 12.7 10.3 77 2.1 W 9 13 5 7 1025.9 1025.9 0.0
28/09:00am 13.8 12.2 10.2 79 1.9 W 9 13 5 7 1025.7 1025.7 0.8
28/08:30am 13.1 11.6 10.5 84 1.4 W 9 15 5 8 1025.5 1025.5 0.8
28/08:00am 13.2 11.6 10.2 82 1.5 W 9 15 5 8 1025.1 1025.1 0.8
28/07:30am 12.9 10.6 10.3 84 1.3 WSW 13 20 7 11 1024.8 1024.8 0.8
28/07:00am 13.3 10.6 10.3 82 1.5 WSW 15 24 8 13 1024.6 1024.6 0.8
28/06:30am 13.5 10.7 9.9 79 1.9 SW 15 22 8 12 1024.5 1024.5 0.8
28/06:00am 13.8 11.0 10.0 78 2.0 WSW 15 20 8 11 1024.4 1024.4 0.8
28/05:30am 13.9 11.5 10.1 78 2.0 W 13 20 7 11 1024.2 1024.2 0.8
28/05:00am 14.2 10.9 9.6 74 2.4 WSW 17 24 9 13 1024.0 1024.0 0.8
28/04:30am 14.4 11.0 9.0 70 2.7 WSW 17 26 9 14 1023.9 1023.9 0.8
28/04:00am 14.7 10.9 9.1 69 2.8 WSW 19 28 10 15 1023.9 1023.9 0.8
28/03:30am 14.6 11.3 9.4 71 2.7 WSW 17 24 9 13 1023.9 1023.9 0.8
28/03:00am 14.7 11.0 9.5 71 2.7 WSW 19 26 10 14 1023.9 1023.9 0.8
28/02:30am 14.9 11.6 9.7 71 2.7 WSW 17 22 9 12 1024.1 1024.1 0.8
28/02:00am 14.4 11.9 9.8 74 2.4 WSW 13 20 7 11 1024.2 1024.2 0.8
28/01:30am 14.7 11.4 9.7 72 2.6 WSW 17 22 9 12 1024.3 1024.3 0.8
28/01:00am 14.9 11.6 9.5 70 2.8 WSW 17 28 9 15 1024.4 1024.4 0.8
28/12:30am 15.0 11.6 9.1 68 3.0 WSW 17 28 9 15 1024.5 1024.5 0.8
28/12:00am 15.5 11.5 9.0 65 3.3 SSW 20 30 11 16 1024.6 1024.6 0.8
 
Date/Time
EDT
Tmp

°C
App
Tmp
°C
Dew
Point
°C
Rel
Hum
%
Delta-T

°C
Wind Press
QNH
hPa
Press
MSL
hPa
Rain
since
9 am
mm
Dir
 
Spd
km/h
Gust
km/h
Spd
kts
Gust
kts
27/11:30pm 15.1 11.8 9.7 70 2.8 WSW 17 24 9 13 1024.7 1024.7 0.8
27/11:00pm 15.0 11.7 9.4 69 2.9 W 17 24 9 13 1024.7 1024.7 0.8
27/10:30pm 14.4 12.1 9.0 70 2.7 W 11 15 6 8 1024.8 1024.8 0.8
27/10:00pm 14.1 10.6 8.9 71 2.6 WSW 17 26 9 14 1025.0 1025.0 0.8
27/09:30pm 15.7 12.0 8.0 60 3.9 SW 17 30 9 16 1024.9 1024.9 0.8
27/09:00pm 15.1 10.5 9.7 70 2.8 SW 24 33 13 18 1024.7 1024.7 0.8
27/08:30pm 15.6 11.5 8.8 64 3.5 SW 20 30 11 16 1024.4 1024.4 0.8
27/08:00pm 15.5 10.6 8.3 62 3.6 SW 24 33 13 18 1024.0 1024.0 0.8
27/07:30pm 15.7 11.9 8.9 64 3.5 SW 19 30 10 16 1023.8 1023.8 0.8
27/07:00pm 15.8 11.0 9.0 64 3.5 SW 24 39 13 21 1023.7 1023.7 0.8
27/06:30pm 16.4 11.7 9.1 62 3.8 SW 24 35 13 19 1023.4 1023.4 0.8
27/06:00pm 16.6 11.1 7.5 55 4.5 SW 26 35 14 19 1023.2 1023.2 0.8
27/05:30pm 16.5 11.3 8.7 60 4.0 WSW 26 39 14 21 1023.0 1023.0 0.8
27/05:00pm 17.0 11.8 8.9 59 4.2 SW 26 32 14 17 1022.9 1022.9 0.8
27/04:30pm 16.8 11.8 8.0 56 4.5 SW 24 35 13 19 1022.9 1022.9 0.8
27/04:00pm 16.7 11.3 7.9 56 4.4 SW 26 33 14 18 1023.0 1023.0 0.8
27/03:30pm 16.5 11.7 7.4 55 4.5 WSW 22 35 12 19 1023.1 1023.1 0.8
27/03:00pm 17.0 11.0 8.7 58 4.2 SW 30 43 16 23 1023.1 1023.1 0.8
27/02:30pm 17.2 12.4 8.9 58 4.3 SW 24 33 13 18 1023.3 1023.3 0.8
27/02:00pm 16.8 10.6 7.7 55 4.6 SW 30 43 16 23 1023.5 1023.5 0.8
27/01:30pm 16.2 10.5 8.4 60 4.0 SW 28 41 15 22 1023.5 1023.5 0.8
27/01:00pm 15.8 11.6 9.9 68 3.1 WSW 22 32 12 17 1023.7 1023.7 0.8
27/12:30pm 15.0 9.5 10.6 75 2.3 WSW 30 43 16 23 1023.8 1023.8 0.8
27/12:00pm 14.1 10.2 10.9 81 1.7 WSW 22 37 12 20 1023.8 1023.8 0.8
27/11:42am 13.2 8.7 10.2 82 1.6 WSW 24 41 13 22 1023.9 1023.9 0.8
27/11:30am 14.0 9.1 10.0 77 2.1 WSW 26 41 14 22 1023.7 1023.7 0.2
27/11:02am 14.5 9.6 10.1 75 2.3 W 26 37 14 20 1023.4 1023.4 0.0
27/11:00am 14.2 9.3 10.0 76 2.2 W 26 39 14 21 1023.4 1023.4 0.0
27/10:39am 13.7 8.0 9.9 78 2.0 W 30 48 16 26 1023.4 1023.4 0.0
27/10:37am 13.7 7.6 9.7 77 2.1 W 32 48 17 26 1023.3 1023.3 0.0
27/10:32am 14.5 9.1 9.5 72 2.6 W 28 48 15 26 1023.2 1023.2 0.0
27/10:30am 14.8 10.2 9.6 71 2.7 W 24 41 13 22 1023.2 1023.2 0.0
27/10:00am 14.4 9.0 9.6 73 2.5 W 28 41 15 22 1022.7 1022.7 0.0
27/09:45am 14.0 9.5 10.0 77 2.1 W 24 35 13 19 1022.6 1022.6 0.0
27/09:30am 13.2 7.9 9.8 80 1.7 W 28 43 15 23 1022.7 1022.7 0.0
27/09:22am 13.5 8.6 10.1 80 1.8 W 26 39 14 21 1022.6 1022.6 0.0
27/09:00am 13.8 8.9 9.8 77 2.1 W 26 35 14 19 1022.2 1022.2 0.4
27/08:30am 13.5 9.4 10.1 80 1.8 W 22 37 12 20 1021.8 1021.8 0.4
27/08:00am 13.7 9.5 9.7 77 2.0 W 22 37 12 20 1021.3 1021.3 0.4
27/07:30am 13.6 7.4 9.5 76 2.1 W 32 46 17 25 1020.8 1020.8 0.4
27/07:23am 13.6 8.3 9.8 78 2.0 W 28 46 15 25 1020.8 1020.8 0.4
27/07:00am 13.4 8.8 9.6 78 1.9 W 24 37 13 20 1020.3 1020.3 0.4
27/06:39am 13.7 8.4 9.7 77 2.1 W 28 46 15 25 1020.3 1020.3 0.4
27/06:30am 13.7 9.1 9.7 77 2.1 W 24 41 13 22 1020.2 1020.2 0.4
27/06:00am 13.6 9.0 9.6 77 2.0 W 24 39 13 21 1019.8 1019.8 0.4
27/05:30am 13.7 9.1 9.7 77 2.1 WNW 24 37 13 20 1019.5 1019.5 0.4
27/05:00am 13.7 9.9 9.9 78 2.0 WNW 20 33 11 18 1019.3 1019.3 0.4
27/04:30am 13.8 9.6 9.8 77 2.1 W 22 35 12 19 1019.3 1019.3 0.4
27/04:00am 13.9 9.6 9.5 75 2.2 W 22 37 12 20 1019.1 1019.1 0.4
27/03:30am 14.0 9.4 9.8 76 2.2 W 24 37 13 20 1019.1 1019.1 0.4
27/03:00am 14.0 9.5 10.0 77 2.1 W 24 35 13 19 1019.0 1019.0 0.4
27/02:30am 14.0 9.8 9.8 76 2.2 W 22 37 12 20 1018.8 1018.8 0.4
27/02:00am 14.2 8.8 9.6 74 2.4 W 28 48 15 26 1018.7 1018.7 0.4
27/01:30am 14.0 9.8 9.6 75 2.3 WNW 22 35 12 19 1018.4 1018.4 0.4
27/01:00am 13.7 9.5 9.6 76 2.1 WNW 22 39 12 21 1018.6 1018.6 0.4
27/12:30am 14.0 9.0 9.6 75 2.3 WNW 26 48 14 26 1018.6 1018.6 0.4
27/12:06am 14.1 8.7 9.5 74 2.4 WNW 28 46 15 25 1018.3 1018.3 0.4
27/12:00am 14.1 9.0 9.3 73 2.4 WNW 26 39 14 21 1018.4 1018.4 0.4
 
Date/Time
EDT
Tmp

°C
App
Tmp
°C
Dew
Point
°C
Rel
Hum
%
Delta-T

°C
Wind Press
QNH
hPa
Press
MSL
hPa
Rain
since
9 am
mm
Dir
 
Spd
km/h
Gust
km/h
Spd
kts
Gust
kts
26/11:30pm 14.0 9.3 9.4 74 2.4 WNW 24 39 13 21 1018.2 1018.2 0.4
26/11:16pm 14.1 8.6 9.3 73 2.5 WNW 28 50 15 27 1018.2 1018.2 0.4
26/11:00pm 14.3 9.2 9.3 72 2.6 WNW 26 44 14 24 1018.2 1018.2 0.4
26/10:30pm 14.3 8.8 9.1 71 2.6 WNW 28 43 15 23 1018.0 1018.0 0.4
26/10:00pm 14.4 8.9 9.0 70 2.7 WNW 28 39 15 21 1017.8 1017.8 0.4
26/09:40pm 14.4 8.5 9.0 70 2.7 WNW 30 48 16 26 1017.8 1017.8 0.4
26/09:30pm 14.4 8.1 9.0 70 2.7 NW 32 44 17 24 1017.7 1017.7 0.4
26/09:11pm 14.3 8.7 8.7 69 2.8 NW 28 46 15 25 1017.5 1017.5 0.4
26/09:00pm 14.4 8.4 8.8 69 2.8 WNW 30 46 16 25 1017.4 1017.4 0.4
26/08:30pm 14.3 8.3 8.7 69 2.8 NW 30 48 16 26 1017.1 1017.1 0.4
26/08:11pm 14.4 8.3 8.1 66 3.1 NW 30 48 16 26 1016.9 1016.9 0.4
26/08:00pm 14.4 7.7 8.1 66 3.1 NW 33 50 18 27 1016.8 1016.8 0.4
26/07:30pm 14.6 7.4 7.6 63 3.5 NW 35 59 19 32 1016.5 1016.5 0.4
26/07:00pm 15.0 8.1 7.1 59 3.9 NW 33 56 18 30 1016.2 1016.2 0.4
26/06:37pm 15.1 8.1 6.7 57 4.1 NW 33 59 18 32 1015.7 1015.7 0.4
26/06:30pm 15.1 7.7 6.7 57 4.1 NW 35 50 19 27 1015.8 1015.8 0.4
26/06:00pm 14.2 7.2 7.0 62 3.5 WNW 33 52 18 28 1015.9 1015.9 0.4
26/05:46pm 15.1 8.9 6.1 55 4.3 NW 28 48 15 26 1015.6 1015.6 0.4
26/05:30pm 14.1 8.6 6.0 58 3.9 NW 24 39 13 21 1015.6 1015.6 0.4
26/05:00pm 14.7 8.2 4.7 51 4.7 WNW 28 54 15 29 1015.8 1015.8 0.0
26/04:47pm 16.4 9.7 3.5 42 5.9 WNW 28 48 15 26 1015.4 1015.4 0.0
26/04:30pm 16.6 10.4 2.2 38 6.5 NW 24 33 13 18 1015.3 1015.3 0.0
26/04:09pm 16.9 9.7 2.9 39 6.4 NW 30 50 16 27 1015.7 1015.7 0.0
26/04:00pm 17.1 10.8 1.5 35 6.9 NW 24 37 13 20 1015.5 1015.5 0.0
26/03:30pm 16.8 10.1 1.3 35 6.8 NW 26 39 14 21 1016.0 1016.0 0.0
26/03:00pm 17.0 9.8 1.0 34 7.0 NW 28 35 15 19 1016.2 1016.2 0.0
26/02:30pm 16.7 9.6 1.6 36 6.7 NW 28 43 15 23 1016.6 1016.6 0.0
26/02:00pm 18.5 11.0 3.2 36 7.1 NW 32 43 17 23 1017.0 1017.0 0.0
26/01:30pm 17.2 10.2 2.0 36 6.8 NW 28 48 15 26 1016.9 1016.9 0.0
26/01:00pm 17.0 10.2 3.0 39 6.4 WNW 28 46 15 25 1017.4 1017.4 0.0
26/12:56pm 16.7 9.4 2.3 38 6.5 NW 30 46 16 25 1017.4 1017.4 0.0
26/12:30pm 16.6 10.6 3.6 42 6.0 WNW 24 33 13 18 1017.5 1017.5 0.0
26/12:07pm 14.7 7.6 3.5 47 5.1 NW 30 48 16 26 1017.7 1017.7 0.0
26/12:00pm 15.1 8.4 3.6 46 5.2 NW 28 39 15 21 1017.9 1017.9 0.0
26/11:30am 15.0 8.8 4.4 49 4.9 NW 26 39 14 21 1018.1 1018.1 0.0
26/11:00am 14.2 8.3 3.9 50 4.7 NW 24 37 13 20 1018.0 1018.0 0.0
26/10:30am 13.6 7.5 4.7 55 4.1 NW 26 39 14 21 1017.9 1017.9 0.0
26/10:00am 12.7 7.4 5.1 60 3.5 WNW 22 32 12 17 1017.9 1017.9 0.0
26/09:30am 12.3 7.5 5.7 64 3.1 NW 20 30 11 16 1017.9 1017.9 0.0

Latest Capital City Observations: Canberra | Sydney | Melbourne | Brisbane | Adelaide | Perth | Hobart | Darwin

Other Formats:

Comma delimited format used in spreadsheet applications
http://www.bom.gov.au/fwo/IDV60901/IDV60901.94870.axf

JavaScript Object Notation format (JSON) in row-major order
http://www.bom.gov.au/fwo/IDV60901/IDV60901.94870.json